{"data":{"norad_id":64336,"epoch":"2026-05-25T02:58:27.532128Z","epoch_age_seconds":61479,"freshness":"FRESH","line1":"1 64336U 25124V   26145.12392977  .00014062  00000+0  51923-3 0  9999","line2":"2 64336  43.0036  46.2714 0001529 254.0267 106.0416 15.27600957 53511","mean_motion":15.27600957,"eccentricity":0.0001529,"inclination_deg":43.0036,"raan_deg":46.2714,"arg_perigee_deg":254.0267,"mean_anomaly_deg":106.0416,"bstar":0.00051923,"rev_number":5351,"period_min":94.265455477847,"perigee_km":481.93727820054,"apogee_km":484.03540971912,"semimajor_km":6861.1233439598,"source":"CELESTRAK","updated_at":"2026-05-25T13:38:20.398624Z"}}